User: anonymous   Login
Location: Hepcat Sky Observatory
(29.9800°N, 95.6500°W)
Time: 20:48:00
(UTC-06:00)
Language:

Cosmos 2151 Rocket - Orbit

View from above orbital plane
View from above orbital plane
View from above satellite
View from above satellite

Ground track
Ground track

The orbit data is extracted from the following two-line orbital elements,

1 21423U 91042B   15062.37747042  .00000646  00000-0  83289-4 0  9996
2 21423 082.4949 023.2948 0019209 109.3203 251.0089 14.79427228278847
Epoch (UTC): 03 March 2015 09:03:33
Eccentricity: 0.0019209
inclination: 82.4949°
perigee height: 617 km
apogee height: 644 km
right ascension of ascending node: 23.2948°
argument of perigee: 109.3203°
revolutions per day: 14.79427228
mean anomaly at epoch: 251.0089°
orbit number at epoch: 27884

The dashed part of the orbit path shows where the satellite is in the earth's shadow,  

DLR